Location: Fernhill
(41.0167°S, 175.6333°E)
Time: 10:33:36
(UTC+00:00)

Cosmos 2084 - Pass Details

Date: 08 November 2025
Orbit: 529 x 573 km, 62.8° (Epoch: 11 December)

Event Time Altitude Azimuth Distance (km) Brightness Sun altitude
Rises 09:35:59 0° 221° (SW) 2,795 8.4 -23.2°
Reaches altitude 10° 09:38:17 10° 226° (SW) 1,897 7.1 -23.5°
Enters shadow 09:42:24 49° 300° (WNW) 752 3.9 -23.9°
